User: anonymous   Login
Location: Unspecified
(0.0000°N, 0.0000°E)
Time: 00:52:34
(UTC+00:00)
Language:

SR 8 - Orbit

View from above orbital plane
View from above orbital plane
View from above satellite
View from above satellite

Ground track
Ground track

The orbit data is extracted from the following two-line orbital elements,

1  1738U 65093A   19022.52938544 -.00000121  00000-0  10695-4 0  9996
2  1738  59.7080  62.7126 0140924  84.9292 276.7813 14.40179254787843
Epoch (UTC): 22 January 2019 12:42:18
Eccentricity: 0.0140924
inclination: 59.7080°
perigee height: 657 km
apogee height: 858 km
right ascension of ascending node: 62.7126°
argument of perigee: 84.9292°
revolutions per day: 14.40179254
mean anomaly at epoch: 276.7813°
orbit number at epoch: 78784

The dashed part of the orbit path shows where the satellite is in the earth's shadow,  

DLR